Disclaimer

Please do not use the information listed here in-flight or in-navigation, as they are not provided to us by the airports but are provided by volunteers, so they might be outdated.

Search


Regions


Airport information page

No radio frequency information is available.

Airport informations:
Latitude: 51° 00' 33.69" N
Longitude: 002° 38' 19.75" W
Elevation: 75 feet - 23 meters
Operating hours: Remarks
Operating agency: Military
Timezone: UTC 0(+1DT) - Last Sunday in March to last Sunday in October
Fuel: JP-8, SemiKeroscene MIL Spec T-83133, without icing inhibitor

100/130 MIL Spec, low lead, aviation gasoline (BLUE)

Runway information:
04/22 - 4797 x 151 feet< - >1462 x 46 meters
09/27 - 7580 x 151 feet< - >2310 x 46 meters

Recent METARs:
EGDY 160150Z 22010KT 9999 FEW015 BKN025 09/07 Q1011 BLU
EGDY 160150Z 22010KT 9999 FEW015 BKN025 09/07 Q1011 BLU
EGDY 160250Z 22011KT 9999 FEW010 BKN050 10/07 Q1011 BLU

Airport on the map: